Oscoda, MI

9:23 AM EDT on May 30, 2017 (GMT -0400)
Oscoda-Wurtsmith

Weather History for KOSC - February, 2014

Change the Weather History Date:

Sunday, February 16, 2014

  Actual Average Record
Temperature  
Mean Temperature 4 °F -  
Max Temperature 18 °F 29 °F 44 °F (1999)
Min Temperature -11 °F 14 °F -24 °F (2015)
Degree Days  
Heating Degree Days 62    
Moisture  
Dew Point 7 °F    
Average Humidity 81    
Maximum Humidity 92    
Minimum Humidity 66    
Precipitation  
Precipitation 0.00 in - - ()
Sea Level Pressure  
Sea Level Pressure 30.12 in    
Wind  
Wind Speed 6 mph (NE)    
Max Wind Speed 15 mph    
Max Gust Speed -    
Visibility 6 miles    
Events Snow    
Averages and records for this station are not official NWS values.
T = Trace of Precipitation, MM = Missing Value Source: NWS Daily Summary

Daily Weather History Graph

Daily Weather History Graph

Search for Another Location

Airport or City:

Trip Planner

Search our weather history database for the weather conditions in past years. The results will help you decide how hot, cold, wet, or windy it might be!

Date:

Astronomy

Feb. 16, 2014 Rise Set
Actual Time 7:31 AM EST 6:03 PM EST
Civil Twilight 7:02 AM EST 6:33 PM EST
Nautical Twilight 6:28 AM EST 7:07 PM EST
Astronomical Twilight 5:54 AM EST 7:41 PM EST
Moon 8:06 PM EST (2/16) 7:55 AM EST (2/16)
Length of Visible Light 11h 31m
Length of Day
10h 31m
Full, 97% of the Moon is Illuminated
Feb 16
Full
Feb 22
Last Quarter
Mar 1
New
Mar 8
First Quarter
Mar 16
Full

Hourly Weather History & Observations

Time (EST) Temp. Windchill Dew Point Humidity Pressure Visibility Wind Dir Wind Speed Gust Speed Precip Events Conditions
12:14 AM 17.1 °F 8.7 °F 12.6 °F 82% 30.00 in 10.0 mi East 5.8 mph - N/A   Overcast
12:34 AM 17.2 °F 8.9 °F 12.6 °F 82% 30.00 in 7.0 mi East 5.8 mph - N/A Snow Light Snow
12:54 AM 17.1 °F 8.7 °F 12.9 °F 84% 30.00 in 5.0 mi East 5.8 mph - N/A Snow Light Snow
1:13 AM 17.1 °F 8.7 °F 13.1 °F 84% 29.99 in 5.0 mi East 5.8 mph - N/A Snow Light Snow
1:34 AM 17.1 °F 10.0 °F 13.1 °F 84% 29.98 in 7.0 mi East 4.6 mph - N/A Snow Light Snow
1:54 AM 17.2 °F 7.8 °F 13.5 °F 85% 29.97 in 4.0 mi ESE 6.9 mph - N/A Snow Light Snow
2:14 AM 17.2 °F 7.8 °F 13.8 °F 86% 29.96 in 4.0 mi ESE 6.9 mph - N/A Snow Light Snow
2:34 AM 17.4 °F 8.0 °F 14.0 °F 86% 29.96 in 3.0 mi East 6.9 mph - N/A Snow Light Snow
2:54 AM 17.6 °F 10.7 °F 14.5 °F 88% 29.96 in 2.5 mi East 4.6 mph - N/A Snow Light Snow
3:14 AM 17.6 °F 12.3 °F 14.9 °F 89% 29.95 in 2.0 mi East 3.5 mph - N/A Snow Light Snow
3:34 AM 18.0 °F 12.7 °F 15.4 °F 90% 29.95 in 2.0 mi ENE 3.5 mph - N/A Snow Light Snow
3:54 AM 17.6 °F - 15.4 °F 91% 29.96 in 1.8 mi Calm Calm - N/A Snow Light Snow
4:14 AM 17.6 °F 12.3 °F 15.6 °F 92% 29.96 in 1.5 mi ENE 3.5 mph - N/A Snow Light Snow
4:34 AM 17.6 °F 12.3 °F 15.4 °F 91% 29.96 in 1.2 mi NE 3.5 mph - N/A Snow Light Snow
4:54 AM 17.6 °F 12.3 °F 15.4 °F 91% 29.97 in 1.2 mi NNE 3.5 mph - N/A Snow Light Snow
5:14 AM 17.6 °F 12.3 °F 15.4 °F 91% 29.97 in 1.5 mi NNE 3.5 mph - N/A Snow Light Snow
5:34 AM 17.4 °F 10.4 °F 15.3 °F 91% 29.97 in 2.5 mi NE 4.6 mph - N/A Snow Light Snow
5:54 AM 17.4 °F 8.0 °F 14.9 °F 90% 29.97 in 3.0 mi NE 6.9 mph - N/A Snow Light Snow
6:14 AM 17.2 °F 6.8 °F 14.5 °F 89% 29.97 in 4.0 mi NE 8.1 mph - N/A   Overcast
6:34 AM 16.7 °F 6.2 °F 14.0 °F 89% 29.98 in 5.0 mi NE 8.1 mph - N/A Snow Light Snow
6:54 AM 16.7 °F 8.3 °F 14.0 °F 89% 29.98 in 3.0 mi NE 5.8 mph - N/A Snow Light Snow
7:14 AM 17.1 °F 6.6 °F 14.0 °F 88% 29.99 in 3.0 mi NE 8.1 mph - N/A Snow Light Snow
7:34 AM 16.7 °F 7.2 °F 14.0 °F 89% 30.00 in 1.8 mi NE 6.9 mph - N/A Snow Light Snow
7:54 AM 16.5 °F 8.1 °F 13.6 °F 88% 30.00 in 7.0 mi NE 5.8 mph - N/A Snow Light Snow
8:14 AM 16.5 °F 8.1 °F 13.6 °F 88% 30.01 in 3.0 mi ENE 5.8 mph - N/A Snow Light Snow
8:34 AM 16.7 °F 11.2 °F 14.0 °F 89% 30.02 in 2.5 mi NNE 3.5 mph - N/A Snow Light Snow
8:53 AM 16.7 °F 11.2 °F 14.0 °F 89% 30.03 in 2.0 mi NNE 3.5 mph - N/A Snow Light Snow
9:14 AM 17.2 °F 10.2 °F 14.4 °F 88% 30.03 in 2.5 mi NNE 4.6 mph - N/A Snow Light Snow
9:34 AM 17.6 °F 10.7 °F 14.2 °F 86% 30.04 in 2.5 mi NE 4.6 mph - N/A Snow Light Snow
9:53 AM 18.3 °F 9.1 °F 14.7 °F 86% 30.05 in 2.0 mi North 6.9 mph - N/A Snow Light Snow
10:14 AM 18.5 °F 6.1 °F 14.9 °F 86% 30.06 in 1.8 mi NNE 11.5 mph - N/A Snow Light Snow
10:34 AM 18.3 °F 5.9 °F 14.5 °F 85% 30.07 in 2.0 mi NE 11.5 mph - N/A Snow Light Snow
10:53 AM 18.5 °F 6.1 °F 14.4 °F 84% 30.07 in 4.0 mi NNE 11.5 mph - N/A Snow Light Snow
11:14 AM 18.3 °F 5.9 °F 13.8 °F 83% 30.09 in 1.8 mi NNE 11.5 mph - N/A Snow Light Snow
11:34 AM 17.4 °F 2.9 °F 12.6 °F 81% 30.10 in 2.5 mi NNE 15.0 mph - N/A Snow Light Snow
11:54 AM 17.6 °F 3.7 °F 12.2 °F 79% 30.11 in 4.0 mi NE 13.8 mph - N/A Snow Light Snow
12:14 PM 17.4 °F 2.9 °F 11.7 °F 78% 30.12 in 2.5 mi NE 15.0 mph - N/A Snow Light Snow
12:34 PM 17.1 °F 2.5 °F 11.8 °F 80% 30.12 in 1.8 mi NE 15.0 mph - N/A Snow Light Snow
12:54 PM 16.7 °F 2.0 °F 10.6 °F 77% 30.12 in 1.8 mi NNE 15.0 mph - N/A Snow Light Snow
1:14 PM 16.7 °F 2.0 °F 9.5 °F 73% 30.12 in 10.0 mi NNE 15.0 mph - N/A   Overcast
1:34 PM 16.5 °F 1.8 °F 9.1 °F 73% 30.13 in 7.0 mi NNE 15.0 mph - N/A   Overcast
1:54 PM 16.5 °F 2.4 °F 8.8 °F 72% 30.13 in 7.0 mi NE 13.8 mph - N/A   Overcast
2:14 PM 16.7 °F 4.5 °F 9.3 °F 73% 30.14 in 10.0 mi NE 10.4 mph - N/A   Overcast
2:34 PM 15.8 °F 2.1 °F 9.1 °F 75% 30.15 in 7.0 mi NNE 12.7 mph - N/A Snow Light Snow
2:54 PM 15.8 °F 0.9 °F 9.0 °F 74% 30.15 in 7.0 mi NE 15.0 mph - N/A Snow Light Snow
3:14 PM 15.4 °F 1.0 °F 8.4 °F 74% 30.16 in 10.0 mi NE 13.8 mph - N/A   Mostly Cloudy
3:34 PM 15.6 °F 3.2 °F 8.4 °F 73% 30.18 in 10.0 mi NNE 10.4 mph - N/A   Mostly Cloudy
3:54 PM 15.8 °F 4.2 °F 7.2 °F 69% 30.18 in 10.0 mi NNE 9.2 mph - N/A   Scattered Clouds
4:14 PM 16.0 °F 3.6 °F 6.4 °F 66% 30.19 in 10.0 mi NNE 10.4 mph - N/A   Clear
4:34 PM 14.7 °F 2.9 °F 5.2 °F 66% 30.20 in 10.0 mi NE 9.2 mph - N/A   Scattered Clouds
4:54 PM 14.0 °F 3.9 °F 5.0 °F 67% 30.22 in 10.0 mi NE 6.9 mph - N/A   Scattered Clouds
5:14 PM 13.3 °F 0.3 °F 4.3 °F 67% 30.23 in 10.0 mi NE 10.4 mph - N/A   Scattered Clouds
5:34 PM 12.2 °F -0.2 °F 3.2 °F 67% 30.23 in 10.0 mi NE 9.2 mph - N/A   Clear
5:54 PM 10.2 °F -1.7 °F 1.8 °F 69% 30.25 in 10.0 mi NE 8.1 mph - N/A   Clear
6:14 PM 9.1 °F -1.9 °F 0.7 °F 69% 30.26 in 10.0 mi NNE 6.9 mph - N/A   Clear
6:34 PM 8.6 °F -1.3 °F -0.2 °F 67% 30.27 in 10.0 mi NNE 5.8 mph - N/A   Clear
6:54 PM 6.6 °F -2.2 °F -1.3 °F 70% 30.28 in 10.0 mi NNE 4.6 mph - N/A   Clear
7:14 PM 5.7 °F -1.3 °F -0.9 °F 74% 30.29 in 10.0 mi North 3.5 mph - N/A   Clear
7:34 PM 5.4 °F - -1.1 °F 75% 30.30 in 10.0 mi Calm Calm - N/A   Clear
7:54 PM 1.4 °F - -2.2 °F 85% 30.30 in 10.0 mi Calm Calm - N/A   Clear
8:14 PM 0.9 °F - -4.0 °F 80% 30.31 in 10.0 mi Calm Calm - N/A   Clear
8:34 PM -5.6 °F -14.3 °F -9.4 °F 84% 30.32 in 10.0 mi NW 3.5 mph - N/A   Clear
8:54 PM -5.8 °F - -9.2 °F 85% 30.32 in 10.0 mi Calm Calm - N/A   Clear
9:14 PM -4.5 °F -13.0 °F -8.0 °F 85% 30.33 in 10.0 mi SW 3.5 mph - N/A   Clear
9:34 PM -6.7 °F - -10.8 °F 82% 30.33 in 10.0 mi Calm Calm - N/A   Clear
9:54 PM -8.1 °F - -12.1 °F 83% 30.33 in 10.0 mi Calm Calm - N/A   Clear
10:14 PM -7.6 °F - -11.6 °F 83% 30.33 in 10.0 mi Calm Calm - N/A   Clear
10:33 PM -10.3 °F - -15.5 °F 78% 30.33 in 10.0 mi Calm Calm - N/A   Clear
10:54 PM -9.4 °F - -14.1 °F 80% 30.35 in 10.0 mi Calm Calm - N/A   Clear
11:14 PM -10.7 °F - -15.3 °F 80% 30.34 in 10.0 mi Calm Calm - N/A   Clear
11:34 PM -11.4 °F -23.2 °F -16.2 °F 79% 30.35 in 10.0 mi WSW 4.6 mph - N/A   Clear
11:54 PM -11.9 °F -21.5 °F -17.3 °F 77% 30.35 in 10.0 mi WSW 3.5 mph - N/A   Clear